Location: Lombard
(41.8800°N, 88.0080°W)
Time: 23:39:01
(UTC-05:00)

Transit 2A - Pass Details

Date: 16 February 2023
Orbit: 591 x 964 km, 66.7° (Epoch: 20 March)

Event Time Altitude Azimuth Distance (km) Brightness Sun altitude
Rises 23:28:09 0° 322° (NW) 3,582 - -59.1°
Reaches altitude 10° 23:30:50 10° 314° (NW) 2,667 - -59.2°
Maximum altitude 23:36:30 36° 250° (WSW) 1,469 - -59.5°
Drops below altitude 10° 23:42:12 10° 186° (S) 2,683 - -59.7°
Sets 23:44:55 0° 178° (S) 3,607 - -59.8°
